COSMOS 2251 DEB, 38479

Orbit data source: Space-Track

COSMOS 2251 DEB, 38479 is space debris in LEO originally from a launch on Wed, 16 Jun 1993 UTC launched from the Plesetsk Missile And Space Complex (PKMTR). The debris from Iridium 33, an American commercial communications satellite, has been tracked extensively since its accidental collision with the defunct Russian satellite Cosmos 2251 in 2009. This event, occurring at high speed in low Earth orbit (LEO), generated thousands of pieces of space debris, significantly increasing the risk of further collisions. The Iridium 33 debris cloud has impacted space traffic management and orbital debris mitigation strategies, making it a subject of ongoing study in space situational awareness.

Loading next visibility...
Identifier
38479, 1993-036BTP
Orbit
LEO
Country
Flag of CISCIS
Related business
Manufacturer
Unknown
Mission
Spacecraft
Bus & Motor
Unknown
Mass
Unknown
Launch date (UTC)
1993-06-16 (33 years ago)
Launch vehicle
Unknown
Launch site
Plesetsk Missile And Space Complex (PKMTR)
Object type
Payload
Rocket body
Debris
Shape & HBR
Unknown shape, 0.1 m
Radar Cross Section
Small (<0.1 m²)

Expand to show TLE details & history
Last TLE update: 1 day ago

TLE from 1 day ago
0 COSMOS 2251 DEB
1 38479U 93036BTP 26206.54784544  .00003310  00000-0  10113-2 0  9994
2 38479  74.0068 128.4269 0082539 184.6691 349.9934 14.40300008679229
Epoch: 2026-07-25T13:08Z
TLE epoch observation values (Epoch: 2026-07-25T13:08:53.846Z)
Latitude
5.21109°
Longitude
166.45417°
Altitude
701.601 km
Speed
7.536 km/s
True Right ascension
20h 27m 44s
True Declination
5° 10' 47"
Sunlit
Object was in full shadow at epoch
Visualization orbit readout
Latitude
Unknown
Longitude
Unknown
Altitude
Unknown
Speed
Unknown
Apparent Right ascension
Unknown
Apparent Declination
Unknown
Sunlit
N/A
Visualization observer readout
Local Sidereal Time
12:54:32
Azimuth
Unknown
Elevation
Unknown
Doppler factor
Unknown
Orbital elements
Apogee altitude
814.006 km
Perigee altitude
696.252 km
Semi-major axis
7,133.266 km
Eccentricity
0.00825
Inclination
74.0068°
RAAN
128.4269°
Arg. of periapsis
184.6691°
True anomaly
349.82737°
Mean anomaly
349.9934°
Eccentric anomaly
349.91055°
Mean motion
3.60255 °/min
Orbital period
99.93 mins
BSTAR
0.0010113

Documentation

Showing up to 5 results
|